{"data":{"norad_id":48294,"epoch":"2026-09-19T23:59:52.965312Z","epoch_age_seconds":76860,"freshness":"FRESH","line1":"1 48294U 21036U   26262.99991858  .00000979  00000+0  43302-4 0  9995","line2":"2 48294  53.1585 251.0725 0001331 103.1012 257.0138 15.31695572298182","mean_motion":15.31695572,"eccentricity":0.0001331,"inclination_deg":53.1585,"raan_deg":251.0725,"arg_perigee_deg":103.1012,"mean_anomaly_deg":257.0138,"bstar":4.3302e-5,"rev_number":29818,"period_min":94.01345974512,"perigee_km":469.84160761009,"apogee_km":471.66478217997,"semimajor_km":6848.890194895,"source":"CELESTRAK","updated_at":"2026-09-20T09:00:38.930762Z"}}